sat.trackr.live / text

‹ back to catalog

STARLINK-35169

NORAD 65465 · 2025-195H

PAYLOAD ACTIVE UNKNOWN

§ Identity

Operator
Country
US
Launch date
2025-09-03
Launch site
AFETR
Launch vehicle
Mass (kg)
RCS (m²)

Purposes: comms

External: N2YO · Heavens-Above · Gunter

§ Orbital elements

Epoch: 2026-05-25T04:00:03.998880Z

Period
93.90 min
Inclination
53.1598°
Eccentricity
0.0001225
Mean motion
15.33520818 rev/d
Perigee alt
464.5 km
Apogee alt
466.2 km
Semi-major
6,843.5 km
B*
1.7263e-3
RAAN
263.0418°
Arg perigee
89.7643°
Mean anomaly
190.9225°
Rev number
575

§ Raw data

STARLINK-351691 65465U 25195H   26145.16671295  .00056783  00000+0  17263-2 0  99922 65465  53.1598 263.0418 0001225  89.7643 190.9225 15.33520818  5751

JSON: /api/v1/satellites/65465 · /tle

For live sub-satellite position, see the globe view (requires WebGL).

§ Visibility from observer

Set your observer location to see the next 7 days of passes ≥ 10°. The values pass through the URL so the page stays shareable.

No JS? Fill the form by hand. The geolocation button needs JavaScript.